Wind_Speed
36 38 40 41 42 41 42 41 38 36 35 32 31 31 29 27 27 28 29 28 29 29 24 28 22 22 23 19 18 25 23 18 18 18 15 15 14 12 16 17 18 26 28 27 29 26 30
37 39 41 41 41 42 41 41 40 38 37 35 31 31 31 27 25 26 28 24 31 31 25 25 23 23 19 18 21 20 18 16 17 18 17 16 17 13 20 23 21 23 24 28 23 28 28
41 42 42 43 43 44 44 42 41 39 39 39 33 31 29 27 25 25 30 34 33 37 26 23 19 18 20 12 18 19 16 16 16 18 18 18 20 19 12 17 18 22 26 24 28 27 29
41 43 45 45 43 42 42 41 39 40 37 38 38 33 30 26 23 23 27 30 34 29 27 27 21 21 21 17 17 14 16 14 14 13 9 14 17 18 18 20 23 22 24 30 19 19 23
41 43 43 43 44 44 45 45 45 45 44 41 38 32 27 21 20 20 24 25 25 24 24 20 18 21 20 15 10 13 13 12 10 8 7 11 13 15 14 17 21 17 18 16 17 18 13
41 41 42 44 45 42 44 46 46 39 42 36 34 27 21 15 12 9 9 16 18 21 25 24 23 18 16 11 11 12 9 9 8 7 9 9 10 14 15 16 14 9 17 15 15 10 17
40 40 41 44 43 45 47 48 46 38 31 27 28 23 15 9 8 10 16 17 20 20 13 15 18 13 11 10 10 11 9 8 7 7 7 7 14 18 14 16 19 19 17 19 16 17 18
38 38 40 42 45 45 48 47 41 34 26 24 25 23 15 9 17 14 15 21 24 23 18 18 21 20 14 12 10 11 10 6 6 5 5 13 18 13 20 20 20 20 20 19 14 9 14
40 44 46 47 45 44 43 42 34 32 24 24 24 24 19 11 14 24 20 10 8 21 15 21 21 17 14 12 9 8 5 5 8 10 11 14 10 15 14 10 11 13 18 16 6 12 11
50 53 48 43 40 41 38 36 29 30 27 26 25 23 22 14 10 15 19 20 7 13 6 10 12 14 16 11 7 5 1 6 6 5 8 11 9 10 5 5 8 12 12 2 5 11 3
48 45 43 38 33 43 37 32 27 28 29 25 26 24 23 19 12 13 14 18 10 5 4 7 11 12 14 12 6 3 3 6 7 4 7 2 4 8 11 11 11 8 6 9 3 10 6
53 55 52 45 34 43 33 25 25 28 27 25 27 26 20 14 14 9 11 11 13 8 5 8 13 13 14 11 8 5 6 3 6 9 10 10 10 11 9 11 15 3 5 5 8 12 2
49 50 44 44 38 36 24 26 29 29 26 27 23 22 19 9 11 6 10 15 12 7 6 8 12 15 11 10 8 6 2 4 7 4 6 6 9 4 3 4 12 10 9 3 7 1 3
45 44 44 40 50 31 26 26 28 27 27 23 23 23 18 13 14 14 6 19 6 4 6 8 12 14 7 11 6 5 5 7 3 6 2 4 1 5 11 10 3 1 5 6 4 2 4
49 54 44 50 51 36 25 26 26 26 23 25 31 25 14 17 21 20 11 11 4 5 4 9 14 10 8 7 5 5 3 3 8 5 2 1 5 6 12 10 3 3 4 3 4 6 7
61 46 47 46 37 27 25 25 25 23 27 32 20 19 9 25 27 22 14 1 5 9 10 13 4 4 6 7 4 2 1 4 3 5 6 3 3 7 11 9 8 4 5 3 4 2 5
58 50 42 36 29 24 25 23 23 26 31 22 22 31 21 27 26 20 10 1 7 8 10 7 5 5 5 6 3 2 3 6 6 7 7 3 2 6 6 5 7 6 9 4 2 4 2
56 44 39 31 23 24 22 21 23 28 30 22 25 26 19 19 22 14 5 5 0 7 10 7 7 6 5 4 3 3 4 4 6 7 5 7 6 3 3 7 10 13 11 10 6 6 7
48 42 37 27 21 19 18 20 24 28 27 23 27 28 21 16 12 6 6 9 4 12 10 10 4 4 7 4 2 5 5 8 5 3 3 6 3 1 2 6 10 8 14 13 5 6 6
43 40 33 26 18 16 17 19 23 28 24 21 26 21 15 6 5 4 2 4 2 14 9 11 6 5 6 4 4 6 7 5 8 10 9 8 7 5 7 3 3 6 12 16 10 13 18
41 36 28 25 21 16 14 16 22 24 19 13 14 16 10 11 15 8 3 6 16 9 7 8 6 5 4 2 5 5 5 7 6 7 7 8 8 11 10 7 6 7 9 12 17 13 16
39 30 26 23 21 16 17 17 20 20 15 10 13 18 11 5 1 4 8 6 11 13 7 7 7 7 5 3 3 5 4 3 1 2 6 5 5 7 9 8 8 7 8 9 12 13 14
33 28 27 22 18 13 14 16 17 16 14 11 12 14 15 14 11 9 4 6 11 11 8 12 13 6 5 7 7 7 4 4 2 3 1 3 3 4 3 5 5 4 5 7 7 6 8
26 23 24 19 18 15 12 11 11 12 12 11 8 10 10 9 6 5 8 14 13 10 9 10 12 8 9 11 6 4 4 3 3 4 4 2 2 2 0 2 2 0 3 5 6 4 4
29 16 17 16 18 17 13 9 6 6 8 11 9 9 5 10 10 5 12 17 11 10 12 12 9 12 8 10 4 3 3 3 4 1 3 3 1 1 0 1 2 1 3 2 3 2 2
28 15 11 11 13 16 10 3 5 5 4 6 9 8 9 10 9 8 21 17 11 12 12 12 12 10 8 6 2 1 3 2 3 4 2 2 1 1 1 1 0 2 4 4 2 1 4
24 23 10 11 12 18 16 3 3 4 5 9 9 8 9 12 11 17 20 14 15 15 12 13 14 12 8 4 2 1 1 1 2 2 2 2 3 1 2 2 3 5 3 3 1 2 2
23 25 15 10 13 19 14 6 3 7 9 9 4 6 8 10 11 12 14 17 12 11 9 11 9 8 9 4 1 1 1 3 2 4 2 2 2 2 2 3 3 4 7 4 5 5 7
20 22 23 11 10 15 12 8 2 9 12 11 5 6 9 8 9 11 9 13 11 13 10 14 7 5 7 5 4 3 3 3 4 4 7 2 6 3 4 4 7 6 7 8 7 8 10
Wind_Direction
330 329 329 329 328 327 326 324 322 318 313 308 304 303 298 291 281 272 263 257 259 274 282 280 288 302 301 296 291 288 291 293 295 298 291 279 269 267 263 262 256 255 267 265 263 263 257
331 332 332 328 327 324 323 322 320 319 315 312 308 302 300 296 283 271 254 241 260 266 264 281 285 294 291 289 288 291 291 294 296 300 289 267 264 266 260 250 254 267 268 270 269 257 256
334 332 329 329 326 324 324 324 322 320 316 312 310 304 298 294 287 270 253 230 251 257 264 267 283 290 283 278 286 290 293 289 296 300 284 257 259 263 267 273 269 265 274 283 267 258 254
333 331 330 326 324 324 323 322 321 317 315 310 309 307 303 299 290 275 259 244 246 249 253 271 268 287 279 280 281 275 291 288 295 295 270 246 252 269 263 270 282 279 273 270 273 254 241
332 330 327 327 328 329 327 327 326 322 319 315 311 309 306 304 295 282 259 230 230 247 249 267 262 277 279 278 261 278 286 288 289 283 262 255 257 268 271 271 278 276 263 262 262 273 235
330 330 331 332 330 333 330 329 324 320 318 315 314 314 308 312 298 313 245 222 237 248 246 252 267 268 257 259 263 275 293 278 271 266 242 246 249 256 257 258 253 260 236 259 258 257 227
331 335 332 334 335 334 333 329 325 321 322 325 323 325 313 295 197 171 236 253 224 249 239 251 260 247 257 261 261 278 296 265 282 277 237 259 235 247 257 264 284 270 283 269 278 239 205
332 329 330 334 334 334 334 329 322 325 316 317 311 319 316 282 238 229 208 226 236 238 250 240 256 254 255 246 253 284 288 245 266 249 256 238 252 257 260 263 263 258 263 268 272 164 192
328 325 324 326 324 329 331 324 318 321 308 306 306 311 315 296 263 253 258 241 236 225 253 255 250 245 228 228 244 283 293 239 225 224 227 240 251 292 264 282 267 242 234 258 194 182 212
328 324 319 321 315 321 334 323 317 311 309 305 311 308 307 304 267 260 262 261 266 216 231 248 236 221 211 201 232 253 323 198 195 222 244 263 256 270 301 272 230 242 241 235 140 188 141
323 309 309 309 311 340 337 325 318 313 311 311 308 307 302 299 277 258 239 241 238 214 242 207 190 183 186 174 184 173 211 182 179 237 250 295 258 265 266 284 219 237 224 216 324 275 274
326 320 306 305 306 349 331 325 323 323 321 315 313 309 300 281 269 256 214 199 222 206 229 171 170 174 170 172 174 176 202 265 261 264 263 239 245 261 239 242 208 258 227 210 278 253 107
328 325 286 307 317 345 335 331 327 326 324 320 319 318 325 286 236 223 197 188 179 246 164 168 174 167 152 165 167 172 192 237 252 262 272 282 279 207 179 156 197 203 216 191 229 95 48
328 326 302 313 345 351 341 332 332 331 327 324 317 307 294 263 247 193 180 181 240 77 117 146 157 149 161 158 188 193 223 254 26 229 292 323 84 39 144 134 158 245 329 328 352 105 88
326 336 306 323 347 346 341 339 338 334 333 323 319 312 277 219 207 183 178 180 29 68 114 144 133 146 161 175 146 181 92 35 27 53 3 326 32 79 102 134 60 331 321 305 335 67 70
333 341 322 337 345 348 349 346 342 344 336 336 3 68 130 156 160 168 180 53 68 96 120 131 113 162 164 170 159 185 145 40 32 54 102 56 68 115 96 84 28 47 3 318 344 323 77
340 342 345 348 352 358 358 356 354 346 349 23 78 87 105 141 153 150 171 8 85 124 128 114 68 131 141 152 133 78 70 72 79 81 71 69 9 122 53 44 26 30 19 343 351 348 344
342 349 350 355 359 4 3 356 357 357 27 98 95 90 100 129 136 141 159 193 185 138 124 125 77 103 130 123 96 87 108 118 94 75 58 93 93 77 116 45 41 45 19 23 356 45 39
346 353 355 359 7 6 360 1 7 25 55 111 95 102 108 112 127 121 191 206 318 125 120 93 59 90 140 124 68 102 97 100 89 40 85 91 70 107 78 17 28 23 13 14 27 59 26
355 356 359 8 13 11 3 11 36 58 69 102 102 106 112 69 137 177 105 224 122 130 108 79 83 83 119 64 95 135 125 100 84 67 81 86 64 69 73 66 31 26 23 30 83 60 78
358 1 7 14 26 17 7 35 68 73 67 82 109 108 102 99 91 78 125 134 136 113 113 92 91 100 113 82 85 128 111 113 72 65 62 82 74 79 74 74 77 62 56 55 56 55 75
1 10 20 28 24 30 49 59 83 85 85 97 99 108 112 106 77 92 69 117 161 123 117 95 96 107 69 129 80 151 121 95 69 99 68 84 95 69 55 60 67 70 70 72 78 79 88
5 17 29 32 26 37 61 74 79 86 96 105 88 98 108 85 78 97 122 117 126 138 150 129 123 97 117 114 129 148 158 168 205 152 121 80 94 61 3 48 58 86 43 78 86 96 100
4 21 28 27 31 37 50 79 93 84 101 125 115 117 110 76 65 97 148 158 137 148 149 134 142 125 132 113 111 112 122 125 157 149 175 117 138 119 349 35 15 251 92 100 103 114 124
1 9 35 36 35 28 47 66 81 72 95 129 145 136 90 68 48 107 152 163 151 144 159 151 137 144 143 112 88 54 26 38 9 248 189 144 97 8 325 230 161 244 227 173 147 207 199
356 353 7 20 17 10 7 47 72 56 101 119 131 109 68 61 34 129 148 147 158 151 158 163 156 150 152 124 84 52 28 7 350 348 289 179 49 19 19 94 180 209 229 222 230 200 279
349 349 336 345 357 360 353 314 158 100 119 117 110 81 75 63 79 134 151 156 148 163 173 179 181 177 171 134 94 59 349 334 322 323 333 334 338 345 304 319 314 276 215 147 102 259 252
345 347 336 335 345 3 13 359 151 148 144 150 103 76 63 100 105 114 139 142 150 165 160 180 162 199 196 188 165 259 294 264 271 254 260 231 243 265 238 266 274 269 230 217 239 252 263
343 341 345 331 342 355 21 20 180 157 153 158 136 88 79 110 122 134 145 163 146 159 171 185 189 206 215 212 231 234 270 283 247 274 251 266 214 233 218 241 261 225 231 230 242 253 266
Height
3110 3104 3098 3093 3086 3081 3076 3071 3068 3064 3060 3056 3054 3050 3047 3046 3044 3044 3044 3047 3045 3043 3046 3045 3044 3042 3040 3039 3038 3033 3032 3031 3030 3029 3029 3029 3031 3032 3033 3035 3036 3031 3030 3029 3028 3028 3029
3105 3099 3093 3086 3081 3075 3070 3065 3059 3055 3050 3047 3046 3042 3039 3037 3036 3035 3036 3038 3038 3037 3039 3039 3038 3037 3034 3034 3030 3029 3028 3027 3026 3025 3024 3026 3028 3028 3028 3028 3029 3027 3024 3021 3020 3020 3022
3098 3092 3087 3081 3075 3068 3062 3058 3053 3048 3043 3038 3037 3034 3032 3029 3027 3027 3027 3030 3030 3033 3032 3032 3033 3031 3028 3030 3027 3025 3024 3023 3022 3021 3020 3022 3024 3024 3026 3026 3024 3021 3017 3014 3011 3013 3014
3094 3087 3081 3076 3070 3064 3057 3052 3046 3040 3036 3030 3027 3025 3022 3021 3019 3018 3017 3020 3023 3025 3026 3026 3027 3026 3022 3022 3022 3022 3021 3019 3018 3017 3017 3018 3020 3021 3021 3021 3017 3016 3014 3009 3006 3008 3009
3089 3084 3079 3072 3063 3056 3048 3042 3036 3031 3026 3022 3018 3016 3012 3011 3010 3008 3008 3011 3015 3016 3019 3021 3022 3021 3017 3017 3018 3018 3017 3015 3015 3014 3014 3016 3018 3018 3019 3016 3014 3011 3008 3005 3005 3001 3002
3086 3079 3071 3064 3056 3051 3042 3036 3029 3022 3017 3014 3010 3008 3006 3004 3004 3003 3003 3005 3009 3012 3013 3015 3016 3018 3014 3015 3015 3015 3013 3012 3012 3012 3013 3015 3014 3015 3014 3013 3010 3005 3005 3003 3001 3001 2998
3080 3072 3064 3056 3050 3042 3037 3030 3023 3016 3011 3008 3005 3002 3001 3000 2999 2996 3001 2999 3004 3007 3005 3010 3010 3010 3010 3012 3012 3011 3010 3010 3010 3011 3012 3012 3013 3011 3010 3009 3006 3005 3004 3000 2997 2997 2998
3074 3066 3058 3050 3044 3037 3029 3021 3015 3011 3006 3004 3000 2998 2997 2996 2993 2991 2992 2997 2999 3000 3003 3004 3004 3004 3007 3008 3010 3008 3007 3009 3008 3009 3010 3013 3009 3009 3006 3005 3003 3002 3002 2997 2994 2995 2997
3069 3060 3052 3044 3036 3030 3023 3016 3011 3006 3001 2999 2995 2992 2992 2992 2990 2988 2986 2990 2991 2995 2998 2998 2999 3000 3003 3007 3007 3005 3005 3006 3006 3007 3008 3009 3007 3005 3004 3002 3000 2998 2998 2995 2996 2994 2996
3061 3052 3043 3035 3028 3022 3017 3009 3004 3000 2996 2993 2991 2988 2986 2987 2989 2985 2984 2986 2987 2992 2995 2995 2993 2996 3000 3003 3005 3005 3004 3007 3005 3005 3007 3007 3005 3003 3001 3000 3000 2998 2998 2997 2995 2993 2993
3057 3047 3038 3029 3020 3012 3008 3003 2999 2994 2991 2988 2985 2983 2981 2981 2982 2982 2983 2983 2987 2992 2993 2992 2991 2993 2997 3003 3005 3004 3005 3004 3004 3006 3008 3005 3003 3002 3001 3000 2999 2999 2999 2995 2995 2993 2988
3051 3040 3029 3021 3013 3006 3003 2997 2993 2989 2985 2982 2979 2976 2975 2976 2976 2979 2979 2983 2988 2995 2987 2988 2989 2992 2997 3000 3003 3004 3004 3004 3003 3003 3003 3003 3000 2999 2998 2998 2998 2999 2998 2998 2995 2991 2991
3045 3035 3022 3013 3008 3004 2996 2993 2988 2985 2981 2976 2973 2970 2969 2970 2973 2975 2977 2982 2989 2986 2986 2988 2989 2992 2998 3000 3002 3003 3004 3004 3003 3003 3000 2999 2997 2995 2997 2998 2998 3000 2998 2997 2994 2990 2991
3039 3030 3022 3012 3004 2995 2993 2989 2985 2981 2975 2971 2968 2965 2966 2967 2967 2974 2976 2983 2983 2982 2985 2987 2990 2994 2999 3001 3003 3004 3004 3003 3001 3001 3001 3000 2999 2998 2997 3000 3000 2997 2998 2997 2989 2988 2990
3034 3024 3016 3006 2999 2995 2991 2987 2982 2977 2972 2966 2959 2953 2950 2955 2963 2971 2978 2983 2981 2984 2987 2989 2993 2998 2999 3002 3003 3003 3003 3003 3002 3001 3003 3002 3002 3000 2999 3001 3002 3000 3000 2999 2995 2991 2991
3030 3022 3014 3007 3000 2994 2990 2986 2980 2975 2969 2960 2951 2946 2947 2954 2965 2973 2979 2981 2984 2986 2989 2993 2996 2998 3000 3003 3004 3003 3004 3005 3005 3003 3003 3005 3005 3005 3004 3004 3003 3001 3001 3000 2997 2995 2995
3029 3019 3012 3004 2999 2994 2991 2985 2981 2974 2967 2959 2955 2950 2955 2964 2972 2978 2984 2985 2987 2988 2991 2995 2998 2999 3002 3004 3005 3006 3007 3007 3005 3005 3005 3004 3007 3010 3007 3008 3006 3006 3004 3003 3001 2999 2993
3027 3019 3010 3004 3000 2997 2992 2987 2983 2976 2969 2966 2965 2964 2971 2976 2981 2985 2988 2989 2990 2991 2994 2997 2998 3000 3004 3005 3007 3008 3009 3008 3007 3007 3007 3006 3008 3009 3010 3009 3007 3006 3006 3005 3003 3005 3000
3027 3019 3011 3005 3001 2997 2992 2989 2986 2982 2977 2976 2973 2976 2982 2986 2990 2990 2991 2993 2994 2995 2998 2999 3002 3002 3005 3007 3009 3009 3009 3010 3009 3009 3008 3009 3011 3010 3010 3011 3009 3009 3009 3007 3006 3008 3008
3028 3019 3012 3006 3002 2998 2995 2993 2990 2989 2989 2988 2986 2987 2992 2992 2993 2994 2996 2996 2996 2999 3002 3002 3004 3005 3008 3009 3009 3010 3011 3012 3012 3011 3011 3011 3012 3012 3014 3016 3016 3015 3013 3010 3009 3011 3015
3028 3021 3015 3009 3005 3001 2998 2996 2994 2995 2997 2997 2994 2993 2995 2996 2997 2998 2998 2997 2999 3002 3005 3006 3008 3009 3012 3012 3012 3013 3014 3015 3015 3015 3014 3013 3013 3015 3016 3016 3017 3017 3017 3016 3014 3014 3017
3030 3023 3016 3012 3008 3005 3003 3001 2998 2998 2999 3001 2997 2996 2997 2998 2999 2999 3000 3001 3002 3005 3008 3010 3011 3013 3014 3015 3015 3016 3016 3016 3017 3018 3018 3017 3018 3017 3017 3018 3018 3018 3018 3018 3019 3020 3023
3032 3026 3019 3014 3011 3008 3007 3006 3004 3002 3001 3003 3002 3000 3000 3002 3001 3001 3003 3003 3006 3008 3010 3011 3012 3017 3016 3015 3016 3017 3017 3017 3017 3019 3019 3020 3020 3019 3019 3017 3017 3019 3019 3020 3020 3021 3023
3034 3028 3024 3018 3014 3011 3010 3008 3006 3005 3003 3004 3004 3003 3002 3002 3002 3003 3004 3005 3008 3009 3012 3013 3015 3016 3019 3018 3019 3020 3019 3020 3020 3020 3020 3021 3022 3023 3023 3021 3021 3021 3020 3020 3020 3022 3023
3037 3030 3025 3021 3017 3015 3012 3011 3009 3007 3005 3004 3005 3005 3003 3002 3002 3002 3003 3007 3010 3012 3014 3016 3017 3018 3019 3019 3023 3023 3023 3023 3021 3022 3022 3022 3024 3024 3025 3023 3024 3022 3022 3023 3023 3026 3025
3037 3030 3026 3022 3019 3017 3014 3011 3010 3010 3008 3006 3005 3005 3004 3003 3003 3002 3005 3009 3012 3014 3017 3018 3019 3020 3021 3022 3024 3025 3024 3024 3024 3023 3022 3022 3022 3025 3024 3024 3023 3024 3023 3024 3025 3027 3026
3035 3032 3024 3021 3018 3015 3012 3010 3009 3009 3010 3010 3008 3007 3005 3004 3003 3003 3007 3010 3012 3015 3017 3019 3021 3022 3023 3024 3025 3026 3026 3026 3027 3026 3025 3024 3023 3024 3025 3024 3023 3021 3022 3023 3027 3031 3026
3033 3032 3026 3020 3018 3014 3011 3011 3009 3009 3010 3012 3011 3009 3009 3007 3007 3008 3009 3011 3014 3016 3019 3022 3024 3024 3025 3026 3027 3026 3027 3026 3026 3025 3025 3027 3026 3026 3026 3025 3025 3022 3023 3026 3026 3025 3026
3032 3029 3027 3020 3019 3017 3013 3012 3012 3010 3009 3010 3012 3011 3009 3010 3011 3011 3011 3012 3014 3016 3019 3022 3023 3024 3025 3026 3027 3026 3027 3026 3026 3026 3025 3026 3026 3026 3027 3025 3023 3022 3023 3023 3024 3024 3025